Location: Unspecified
(48.7670°N, 0.0000°E)
Time: 03:12:43
(UTC+00:00)

Altair - Pass Details

Date: 04 July 2019
Orbit: 1501 x 1683 km, 47.2° (Epoch: 15 July)

Event Time Altitude Azimuth Distance (km) Brightness Sun altitude
Rises 21:40:33 0° 286° (WNW) 4,736 10.9 -11.5°
Reaches altitude 10° 21:43:38 10° 283° (WNW) 3,774 10.2 -11.8°
Maximum altitude 21:52:56 57° 208° (SSW) 1,856 7.8 -12.6°
Enters shadow 22:01:16 15° 136° (SE) 3,510 8.8 -13.3°
Drops below altitude 10° 22:02:34 10° 134° (SE) 3,899 - -13.4°
Sets 22:05:49 0° 130° (SE) 4,901 - -13.6°
